TimeCST,TemperatureF,Dew PointF,Humidity,Sea Level PressureIn,VisibilityMPH,Wind Direction,Wind SpeedMPH,Gust SpeedMPH,PrecipitationIn,Events,Conditions,WindDirDegrees,DateUTC
12:53 AM,57.9,48.0,70,29.92,10.0,South,8.1,-,N/A,,Clear,180,2013-02-27 06:53:00
1:53 AM,55.4,48.2,77,29.91,10.0,South,6.9,-,N/A,,Clear,170,2013-02-27 07:53:00
2:53 AM,51.1,46.9,86,29.91,10.0,ESE,3.5,-,N/A,,Clear,120,2013-02-27 08:53:00
3:53 AM,52.0,46.9,83,29.91,10.0,SSE,8.1,-,N/A,,Clear,160,2013-02-27 09:53:00
4:53 AM,48.9,45.0,86,29.93,10.0,ENE,3.5,-,N/A,,Clear,70,2013-02-27 10:53:00
5:53 AM,48.0,45.0,89,29.94,10.0,East,5.8,-,N/A,,Clear,100,2013-02-27 11:53:00
6:53 AM,48.0,44.1,86,29.96,10.0,East,3.5,-,N/A,,Clear,80,2013-02-27 12:53:00
7:53 AM,55.9,52.0,87,30.00,10.0,Calm,Calm,-,N/A,,Clear,0,2013-02-27 13:53:00
8:53 AM,63.0,55.0,75,30.04,10.0,NNW,6.9,-,N/A,,Clear,340,2013-02-27 14:53:00
9:53 AM,64.9,53.1,65,30.06,10.0,NNW,16.1,-,N/A,,Clear,330,2013-02-27 15:53:00
10:53 AM,69.1,51.1,53,30.06,10.0,NW,10.4,-,N/A,,Clear,310,2013-02-27 16:53:00
11:53 AM,72.0,48.9,44,30.06,10.0,WNW,11.5,17.3,N/A,,Clear,290,2013-02-27 17:53:00
12:53 PM,73.9,50.0,43,30.03,10.0,West,13.8,19.6,N/A,,Scattered Clouds,260,2013-02-27 18:53:00
1:53 PM,75.0,35.1,23,30.03,10.0,NNW,17.3,25.3,N/A,,Clear,340,2013-02-27 19:53:00
2:53 PM,72.0,34.0,25,30.04,10.0,NNW,21.9,26.5,N/A,,Clear,340,2013-02-27 20:53:00
3:53 PM,71.1,33.1,25,30.04,10.0,NNW,20.7,25.3,N/A,,Clear,340,2013-02-27 21:53:00
4:53 PM,69.1,32.0,25,30.04,10.0,North,20.7,26.5,N/A,,Clear,350,2013-02-27 22:53:00
5:53 PM,64.9,32.0,29,30.07,10.0,NNW,18.4,-,N/A,,Clear,340,2013-02-27 23:53:00
6:53 PM,60.1,33.1,36,30.10,10.0,North,11.5,-,N/A,,Clear,350,2013-02-28 00:53:00
7:53 PM,57.0,32.0,39,30.13,10.0,North,12.7,-,N/A,,Clear,350,2013-02-28 01:53:00
8:53 PM,53.1,30.9,43,30.15,10.0,North,9.2,-,N/A,,Clear,360,2013-02-28 02:53:00
9:53 PM,48.0,32.0,54,30.18,10.0,North,8.1,-,N/A,,Clear,350,2013-02-28 03:53:00
10:53 PM,46.9,30.9,54,30.19,10.0,NNW,5.8,-,N/A,,Clear,340,2013-02-28 04:53:00
11:53 PM,46.0,30.9,56,30.20,10.0,NNW,5.8,-,N/A,,Clear,340,2013-02-28 05:53:00